Regional Weather Roundup
Issued by NWS Little Rock, AR

Home | Current Version | Previous Version | Text Only | Print | Product List | Glossary Off
Versions: 1 2 3 4 5 6 7 8 9 10 11 12 13 14 15 16 17 18 19 20 21 22 23 24 25 26 27 28 29 30 31 32 33 34 35 36 37 38 39 40 41 42 43 44 45 46 47 48 49 50

000
ASUS44 KLZK 280105
RWRLZK

WEATHER ROUNDUP FOR ARKANSAS
NATIONAL WEATHER SERVICE LITTLE ROCK AR
800 PM CDT MON APR 27 2015

NOTE: "FAIR" INDICATES FEW OR NO CLOUDS BELOW 12,000 FEET WITH NO
SIGNIFICANT WEATHER AND/OR OBSTRUCTIONS TO VISIBILITY.

ARZ001-003-010-029-280200-
NORTHWEST ARKANSAS

CITY           SKY/WX    TMP DP  RH WIND       PRES   REMARKS
FAYETTEVILLE   CLOUDY    60  38  43 CALM      29.98R
FORT SMITH     CLOUDY    63  37  38 E9        29.92R
HARRISON       CLOUDY    59  36  42 NE6       29.98R
BENTONVILLE    CLOUDY    61  34  36 NE3       30.00R
ROGERS         CLOUDY    60  36  40 N5        30.00R
SILOAM SPGS    CLOUDY    59  37  44 NE5       30.00R
HIGHFILL       CLOUDY    59  39  47 NE3       29.98R
SPRINGDALE     CLOUDY    61  36  39 NE14      29.99R
$$

ARZ004-005-016-280200-
NORTH CENTRAL ARKANSAS

CITY           SKY/WX    TMP DP  RH WIND       PRES   REMARKS
BATESVILLE     CLOUDY    61  37  41 E7        29.97F
FLIPPIN        MOCLDY    63  36  36 NE6       29.96S
MTN HOME       CLOUDY    60  35  39 NE6       29.97R
$$

ARZ040-041-280200-
WEST CENTRAL ARKANSAS

CITY           SKY/WX    TMP DP  RH WIND       PRES   REMARKS
MENA           CLOUDY    61  41  48 E9        29.91R
MOUNT IDA      CLOUDY    61  38  42 VRB6      29.89R
$$

ARZ009-017-025-026-028-280200-
NORTHEAST ARKANSAS

CITY           SKY/WX    TMP DP  RH WIND       PRES   REMARKS
CORNING          N/A     57  43  58 NE7       30.00R
JONESBORO      MOCLDY    55  44  66 NE6       29.98R
NEWPORT        MOCLDY    60  45  57 NE9       29.98F
WALNUT RIDGE   MOCLDY    57  41  54 NE8       29.99R
BLYTHEVILLE    PTCLDY    57  45  64 NE7       29.98R
$$

ARZ022-023-033-042-044-280200-
CENTRAL ARKANSAS

CITY           SKY/WX    TMP DP  RH WIND       PRES   REMARKS
LITTLE ROCK    MOCLDY    58  43  57 NE8       29.92F
N LITTLE ROCK  MOCLDY    60  45  59 NE10      29.92F
JACKSONVILLE   CLOUDY    62  40  45 E13G21    29.92F
SEARCY         CLOUDY    62  42  47 NE12      29.96S
HOT SPRINGS    MOCLDY    61  40  45 E13       29.91R
RUSSELLVILLE   CLOUDY    62  38  40 E8        29.92F
CLINTON        CLOUDY    61  41  48 CALM      29.97S
$$

ARZ036-280200-
EAST ARKANSAS

CITY           SKY/WX    TMP DP  RH WIND       PRES   REMARKS
WEST MEMPHIS   PTCLDY    58  43  57 N8        29.94S
$$

ARZ050-053-066-070-073-280200-
SOUTHWEST ARKANSAS

CITY           SKY/WX    TMP DP  RH WIND       PRES   REMARKS
ARKADELPHIA    FAIR      61  47  59 NE10      29.91R
CAMDEN         CLEAR     59  46  63 N8        29.89R
TEXARKANA      PTCLDY    63  47  55 NE14G20   29.83R
EL DORADO      CLEAR     63  46  54 NE10      29.86R
DE QUEEN       LGT RAIN  62  41  46 E13G20    29.85R
$$

ARZ056-057-069-280200-
SOUTHEAST ARKANSAS

CITY           SKY/WX    TMP DP  RH WIND       PRES   REMARKS
PINE BLUFF     CLEAR     60  44  55 NE12      29.90S
STUTTGART      PTCLDY    59  43  55 NE13      29.92F
MONTICELLO     CLEAR     63  45  51 NE8       29.86R

$$





USA.gov is the U.S. government's official web portal to all federal, state and local government web resources and services.